User: anonymous   Login
Location: Centerville
(32.8776°N, 96.6203°W)
Time: 05:50:06
(UTC+00:00)
Language:

ATLAS 5 CENTAUR R/B - Orbit

View from above orbital plane
View from above orbital plane
View from above satellite
View from above satellite

Ground track
Ground track

The orbit data is extracted from the following two-line orbital elements,

1 36869U 10039B   21260.85384571  .00005923  00000-0  43162-3 0  9995
2 36869  20.1840  56.3855 4817088 255.4435  48.2264  5.98661929179845
Epoch (UTC): 17 September 2021 20:29:32
Eccentricity: 0.4817088
inclination: 20.1840°
perigee height: 262 km
apogee height: 12605 km
right ascension of ascending node: 56.3855°
argument of perigee: 255.4435°
revolutions per day: 5.98661929
mean anomaly at epoch: 48.2264°
orbit number at epoch: 17984

The dashed part of the orbit path shows where the satellite is in the earth's shadow,  

DLR